Simultaneous Nadir Overpasses (SNOs) Predictions

Prediction of SNOs between GOES-17 and NOAA-20 Satellite Orbit:

Table of predicted SNOs for the next 14.0 days since TLE Epoch: 2/24/2024
Index Date Time (GOES-17) GOES-17 Lat,Lon NOAA-20 Lat,Lon Distance(km) Time Diff (sec)
1 02/24/2024 08:26:58 0.02,-104.69 0.08,-105.05 41.38 80
2 02/25/2024 08:05:32 0.02,-104.69 -0.89,-100.51 475.16 80
3 02/26/2024 20:27:29 -0.02,-104.66 -0.30,-105.81 131.94 80
4 02/27/2024 20:11:24 -0.02,-104.66 0.73,-101.28 384.81 80
5 02/29/2024 08:33:11 0.02,-104.69 0.45,-106.55 212.08 80
6 03/01/2024 08:11:47 0.02,-104.69 -0.59,-102.02 304.40 80
7 03/02/2024 20:33:43 -0.03,-104.66 -0.60,-107.32 303.25 80
8 03/03/2024 20:17:38 -0.03,-104.65 0.38,-102.78 213.16 80
9 03/05/2024 08:39:25 0.03,-104.68 0.79,-108.05 384.15 80
10 03/06/2024 08:18:01 0.04,-104.67 -0.25,-103.52 131.98 80
11 03/07/2024 20:39:56 -0.04,-104.63 -0.98,-108.81 476.34 80
12 03/08/2024 20:23:51 -0.04,-104.63 0.06,-104.29 40.06 80
